TimeEDT,TemperatureF,Dew PointF,Humidity,Sea Level PressureIn,VisibilityMPH,Wind Direction,Wind SpeedMPH,Gust SpeedMPH,PrecipitationIn,Events,Conditions,WindDirDegrees,DateUTC
12:53 AM,77.0,71.1,82,29.99,10.0,East,3.5,-,N/A,,Clear,80,2012-10-15 04:53:00
1:53 AM,75.9,71.1,85,29.98,10.0,NE,4.6,-,N/A,,Clear,40,2012-10-15 05:53:00
2:53 AM,75.9,71.1,85,29.95,10.0,NE,5.8,-,N/A,,Clear,50,2012-10-15 06:53:00
3:53 AM,75.0,71.1,87,29.94,10.0,NE,5.8,-,N/A,,Clear,40,2012-10-15 07:53:00
4:53 AM,75.0,72.0,90,29.94,10.0,North,6.9,-,N/A,,Mostly Cloudy,10,2012-10-15 08:53:00
5:53 AM,75.0,72.0,90,29.93,10.0,ENE,5.8,-,N/A,,Overcast,60,2012-10-15 09:53:00
6:53 AM,75.0,72.0,90,29.93,10.0,NE,6.9,-,N/A,,Scattered Clouds,50,2012-10-15 10:53:00
7:53 AM,75.0,72.0,90,29.94,9.0,NNE,6.9,-,N/A,,Scattered Clouds,30,2012-10-15 11:53:00
8:53 AM,77.0,73.0,88,29.95,10.0,NNE,8.1,-,N/A,,Overcast,20,2012-10-15 12:53:00
9:53 AM,80.1,73.9,81,29.97,10.0,North,5.8,-,N/A,,Partly Cloudy,350,2012-10-15 13:53:00
10:53 AM,81.0,73.0,77,29.97,10.0,NNE,3.5,-,N/A,,Overcast,20,2012-10-15 14:53:00
11:53 AM,82.0,73.0,74,29.96,10.0,NNE,3.5,-,N/A,,Mostly Cloudy,20,2012-10-15 15:53:00
12:53 PM,82.9,73.0,72,29.93,10.0,NNE,3.5,-,N/A,,Mostly Cloudy,20,2012-10-15 16:53:00
1:53 PM,82.9,69.1,63,29.91,10.0,NW,5.8,-,0.00,,Mostly Cloudy,310,2012-10-15 17:53:00
2:53 PM,86.0,71.1,61,29.87,10.0,NNW,8.1,-,N/A,,Partly Cloudy,330,2012-10-15 18:53:00
3:53 PM,86.0,69.1,57,29.85,10.0,NW,11.5,-,N/A,,Clear,320,2012-10-15 19:53:00
4:53 PM,84.0,70.0,63,29.84,10.0,NNW,13.8,-,N/A,,Clear,330,2012-10-15 20:53:00
5:53 PM,82.0,71.1,69,29.84,10.0,NNW,11.5,-,N/A,,Clear,340,2012-10-15 21:53:00
6:53 PM,79.0,71.1,77,29.84,10.0,North,5.8,-,N/A,,Clear,350,2012-10-15 22:53:00
7:53 PM,78.1,71.1,79,29.85,10.0,NNW,9.2,-,N/A,,Clear,340,2012-10-15 23:53:00
8:53 PM,77.0,73.0,88,29.87,10.0,NNW,6.9,-,N/A,,Clear,340,2012-10-16 00:53:00
9:53 PM,77.0,73.0,88,29.88,10.0,NNW,9.2,-,N/A,,Clear,340,2012-10-16 01:53:00
10:53 PM,75.9,72.0,87,29.88,10.0,NNW,8.1,-,N/A,,Clear,340,2012-10-16 02:53:00
11:53 PM,75.0,72.0,90,29.88,10.0,NNW,5.8,-,N/A,,Clear,330,2012-10-16 03:53:00